HULIANWAN GAOGUI-02 (H*)

Last updated on Sun Apr 12 2026 00:02:56 GMT+0000 (Coordinated Universal Time)

1 60327U 24135A 26100.83793500 .00000000 00000+0 00000+0 0 9995 2 60327 0.0169 339.2359 0008664 17.9363 296.6021 1.00267702 6820
UTC large
Height (km)
Speed (km/s)
/
Latitude / Longitude
Inclination (degrees)
Orbital Period (minutes)
Azimuth
Elevation
Range (km)
Doppler Factor

Next 0 passes for location: London (51.5072 / 0.1276)

Sorry there are no passes over London.
HULIANWAN GAOGUI-02 (H*)